| time (UTC) | temp C | wind direction | speed KPH | gust KPH | rain 1hr cm | rain 24hr cm | rain mn cm | humidity % | barometer mb |
| 20260506224519 | 13 | 320 | 0.0 | 4.8 | 0.00 | 1.45 | 0.64 | 57 | 1013.0 |
| 20260506223520 | 12 | 316 | 0.0 | 3.2 | 0.00 | 1.45 | 0.64 | 58 | 1013.2 |
| 20260506222522 | 12 | 320 | 3.2 | 9.7 | 0.00 | 1.52 | 0.64 | 56 | 1013.1 |
| 20260506221520 | 13 | 331 | 3.2 | 9.7 | 0.00 | 1.55 | 0.64 | 56 | 1012.8 |
| 20260506220520 | 13 | 318 | 1.6 | 8.0 | 0.00 | 1.57 | 0.64 | 56 | 1012.5 |
| 20260506215520 | 13 | 315 | 1.6 | 6.4 | 0.00 | 1.60 | 0.64 | 56 | 1012.4 |
| 20260506214518 | 13 | 323 | 3.2 | 9.7 | 0.00 | 1.75 | 0.64 | 56 | 1012.3 |
| 20260506213520 | 13 | 301 | 3.2 | 8.0 | 0.00 | 1.75 | 0.64 | 58 | 1012.2 |
| 20260506212518 | 13 | 308 | 3.2 | 11.3 | 0.00 | 1.75 | 0.64 | 57 | 1012.1 |
| 20260506211520 | 13 | 280 | 1.6 | 9.7 | 0.00 | 1.75 | 0.64 | 57 | 1012.0 |
| 20260506210520 | 13 | 304 | 1.6 | 6.4 | 0.00 | 1.75 | 0.64 | 57 | 1012.0 |
| 20260506205518 | 13 | 306 | 1.6 | 6.4 | 0.00 | 1.75 | 0.64 | 56 | 1011.9 |
| 20260506204519 | 13 | 319 | 3.2 | 6.4 | 0.00 | 1.75 | 0.64 | 57 | 1011.9 |
| 20260506203519 | 14 | 301 | 4.8 | 11.3 | 0.00 | 1.75 | 0.64 | 56 | 1011.8 |
| 20260506202521 | 15 | 322 | 3.2 | 9.7 | 0.00 | 1.75 | 0.64 | 57 | 1011.7 |
| 20260506201518 | 15 | 331 | 3.2 | 8.0 | 0.00 | 1.75 | 0.64 | 57 | 1011.6 |
| 20260506200519 | 15 | 338 | 3.2 | 8.0 | 0.00 | 1.75 | 0.64 | 56 | 1011.6 |
| 20260506195518 | 16 | 328 | 4.8 | 9.7 | 0.00 | 1.75 | 0.64 | 55 | 1011.5 |
| 20260506194522 | 15 | 333 | 4.8 | 11.3 | 0.00 | 1.75 | 0.64 | 55 | 1011.6 |
| 20260506193519 | 15 | 331 | 3.2 | 11.3 | 0.00 | 1.75 | 0.64 | 56 | 1011.4 |
| 20260506192519 | 16 | 345 | 3.2 | 8.0 | 0.00 | 1.75 | 0.64 | 54 | 1011.3 |
| 20260506191521 | 16 | 340 | 3.2 | 9.7 | 0.00 | 1.75 | 0.64 | 56 | 1011.4 |
| 20260506190522 | 15 | 341 | 3.2 | 6.4 | 0.00 | 1.75 | 0.64 | 56 | 1011.6 |
| 20260506185521 | 15 | 335 | 3.2 | 6.4 | 0.00 | 1.75 | 0.64 | 56 | 1011.5 |
| 20260506184518 | 15 | 345 | 3.2 | 8.0 | 0.00 | 1.75 | 0.64 | 57 | 1011.7 |
| 20260506183520 | 14 | 321 | 4.8 | 12.9 | 0.00 | 1.75 | 0.64 | 57 | 1011.7 |
| 20260506182520 | 14 | 329 | 3.2 | 9.7 | 0.00 | 1.75 | 0.64 | 57 | 1011.8 |
| 20260506181520 | 14 | 318 | 4.8 | 9.7 | 0.00 | 1.75 | 0.64 | 56 | 1011.8 |
| 20260506180518 | 14 | 328 | 3.2 | 8.0 | 0.00 | 1.75 | 0.64 | 58 | 1011.8 |
| 20260506175517 | 15 | 313 | 4.8 | 12.9 | 0.00 | 1.75 | 0.64 | 56 | 1011.9 |
| 20260506174518 | 15 | 330 | 3.2 | 8.0 | 0.00 | 1.75 | 0.64 | 57 | 1012.0 |
| 20260506173524 | 15 | 322 | 3.2 | 8.0 | 0.00 | 1.75 | 0.64 | 57 | 1011.9 |
| 20260506172519 | 15 | 322 | 4.8 | 9.7 | 0.00 | 1.75 | 0.64 | 58 | 1011.9 |
| 20260506171518 | 14 | 321 | 3.2 | 11.3 | 0.00 | 1.75 | 0.64 | 58 | 1011.9 |
| 20260506170519 | 14 | 327 | 3.2 | 8.0 | 0.00 | 1.75 | 0.64 | 59 | 1011.8 |
| 20260506165518 | 14 | 310 | 4.8 | 11.3 | 0.00 | 1.75 | 0.64 | 58 | 1011.9 |
| 20260506164519 | 13 | 303 | 1.6 | 6.4 | 0.00 | 1.75 | 0.64 | 61 | 1012.3 |
| 20260506163519 | 13 | 316 | 4.8 | 11.3 | 0.00 | 1.75 | 0.64 | 61 | 1012.3 |
| 20260506162519 | 13 | 305 | 3.2 | 11.3 | 0.00 | 1.75 | 0.64 | 61 | 1012.0 |
| 20260506161520 | 13 | 300 | 3.2 | 6.4 | 0.00 | 1.75 | 0.64 | 65 | 1012.1 |
| 20260506160519 | 13 | 319 | 3.2 | 8.0 | 0.00 | 1.75 | 0.64 | 68 | 1012.0 |
| 20260506155520 | 12 | 341 | 3.2 | 9.7 | 0.00 | 1.75 | 0.64 | 68 | 1011.9 |
| 20260506154517 | 12 | 326 | 3.2 | 8.0 | 0.00 | 1.75 | 0.64 | 72 | 1012.0 |
| 20260506153520 | 12 | 345 | 3.2 | 6.4 | 0.00 | 1.75 | 0.64 | 72 | 1011.9 |
| 20260506152520 | 11 | 351 | 3.2 | 6.4 | 0.00 | 1.75 | 0.64 | 75 | 1011.8 |
| 20260506151522 | 11 | 357 | 3.2 | 6.4 | 0.00 | 1.75 | 0.64 | 77 | 1011.7 |
| 20260506150518 | 11 | 330 | 3.2 | 9.7 | 0.00 | 1.75 | 0.64 | 78 | 1011.7 |
| 20260506145518 | 10 | 340 | 3.2 | 8.0 | 0.00 | 1.75 | 0.64 | 79 | 1011.7 |
| 20260506144518 | 10 | 350 | 3.2 | 4.8 | 0.00 | 1.75 | 0.64 | 79 | 1011.7 |
| 20260506143522 | 10 | 321 | 1.6 | 8.0 | 0.00 | 1.75 | 0.64 | 81 | 1011.7 |
| 20260506142518 | 9 | 292 | 1.6 | 6.4 | 0.00 | 1.75 | 0.64 | 82 | 1011.5 |
| 20260506141519 | 9 | 310 | 4.8 | 12.9 | 0.00 | 1.75 | 0.64 | 85 | 1011.3 |
| 20260506140519 | 9 | 324 | 4.8 | 11.3 | 0.00 | 1.75 | 0.64 | 89 | 1011.2 |
| 20260506135522 | 9 | 337 | 3.2 | 4.8 | 0.00 | 1.75 | 0.64 | 90 | 1011.2 |
| 20260506134523 | 9 | 312 | 3.2 | 6.4 | 0.00 | 1.75 | 0.64 | 91 | 1011.0 |
| 20260506133522 | 9 | 321 | 3.2 | 8.0 | 0.00 | 1.75 | 0.64 | 92 | 1010.9 |
| 20260506132522 | 8 | 331 | 1.6 | 4.8 | 0.00 | 1.75 | 0.64 | 94 | 1010.9 |
| 20260506131523 | 8 | 323 | 1.6 | 4.8 | 0.00 | 1.75 | 0.64 | 95 | 1010.9 |
| 20260506130523 | 8 | 329 | 3.2 | 4.8 | 0.00 | 1.75 | 0.64 | 96 | 1010.8 |
| 20260506125523 | 8 | 307 | 3.2 | 4.8 | 0.00 | 1.75 | 0.64 | 97 | 1010.8 |
| 20260506124524 | 8 | 312 | 3.2 | 6.4 | 0.00 | 1.75 | 0.64 | 98 | 1010.7 |
| 20260506123524 | 8 | 307 | 0.0 | 1.6 | 0.00 | 1.75 | 0.64 | 98 | 1010.1 |
| 20260506122524 | 8 | 146 | 0.0 | 1.6 | 0.00 | 1.75 | 0.64 | 98 | 1009.9 |
| 20260506121526 | 8 | 347 | 0.0 | 3.2 | 0.00 | 1.75 | 0.64 | 98 | 1010.2 |
| 20260506120525 | 8 | 311 | 1.6 | 8.0 | 0.00 | 1.78 | 0.64 | 98 | 1010.1 |
| 20260506115524 | 8 | 305 | 0.0 | 3.2 | 0.00 | 1.78 | 0.64 | 98 | 1010.1 |
| 20260506114524 | 7 | 288 | 0.0 | 1.6 | 0.00 | 1.78 | 0.64 | 98 | 1010.2 |
| 20260506113524 | 7 | 326 | 0.0 | 1.6 | 0.00 | 1.78 | 0.64 | 98 | 1009.7 |
| 20260506112525 | 8 | 265 | 0.0 | 1.6 | 0.00 | 1.78 | 0.64 | 98 | 1009.4 |
| 20260506111526 | 7 | 233 | 1.6 | 6.4 | 0.00 | 1.78 | 0.64 | 98 | 1009.0 |
| 20260506110525 | 8 | 243 | 0.0 | 3.2 | 0.00 | 1.78 | 0.64 | 98 | 1008.7 |
| 20260506105525 | 8 | 288 | 1.6 | 6.4 | 0.00 | 1.78 | 0.64 | 98 | 1009.2 |
| 20260506104526 | 8 | 294 | 1.6 | 4.8 | 0.00 | 1.78 | 0.64 | 98 | 1009.2 |
| 20260506103526 | 8 | 320 | 1.6 | 3.2 | 0.00 | 1.78 | 0.64 | 98 | 1009.0 |
| 20260506102525 | 8 | 342 | 1.6 | 3.2 | 0.00 | 1.78 | 0.64 | 98 | 1008.6 |
| 20260506101526 | 8 | 311 | 0.0 | 3.2 | 0.00 | 1.78 | 0.64 | 98 | 1008.3 |
| 20260506100526 | 8 | 290 | 0.0 | 4.8 | 0.00 | 1.78 | 0.64 | 98 | 1007.9 |
| 20260506095526 | 8 | 354 | 1.6 | 4.8 | 0.05 | 1.78 | 0.64 | 98 | 1007.8 |
| 20260506094526 | 8 | 302 | 1.6 | 6.4 | 0.08 | 1.78 | 0.64 | 98 | 1008.0 |
| 20260506093526 | 8 | 314 | 1.6 | 4.8 | 0.10 | 1.75 | 0.64 | 98 | 1008.0 |
| 20260506092518 | 8 | 306 | 3.2 | 8.0 | 0.15 | 1.75 | 0.64 | 98 | 1008.2 |
| 20260506091519 | 8 | 289 | 1.6 | 8.0 | 0.23 | 1.75 | 0.64 | 98 | 1007.9 |
| 20260506090527 | 8 | 282 | 1.6 | 4.8 | 0.30 | 1.75 | 0.64 | 98 | 1007.7 |
| 20260506085524 | 8 | 313 | 3.2 | 8.0 | 0.28 | 1.73 | 0.58 | 98 | 1008.2 |
| 20260506084525 | 8 | 298 | 3.2 | 9.7 | 0.25 | 1.68 | 0.56 | 98 | 1008.2 |
| 20260506083518 | 8 | 296 | 3.2 | 8.0 | 0.23 | 1.65 | 0.53 | 98 | 1007.8 |
| 20260506082527 | 8 | 312 | 1.6 | 8.0 | 0.18 | 1.60 | 0.46 | 98 | 1007.8 |
| 20260506081529 | 8 | 298 | 1.6 | 6.4 | 0.13 | 1.55 | 0.41 | 98 | 1007.7 |
| 20260506080520 | 8 | 311 | 3.2 | 8.0 | 0.05 | 1.45 | 0.30 | 98 | 1007.5 |
| 20260506073519 | 9 | 300 | 3.2 | 11.3 | 0.13 | 1.42 | 0.28 | 98 | 1007.1 |
| 20260506072520 | 9 | 315 | 4.8 | 11.3 | 0.13 | 1.42 | 0.28 | 98 | 1007.0 |
| 20260506071520 | 9 | 314 | 3.2 | 8.0 | 0.15 | 1.40 | 0.25 | 98 | 1007.0 |
| 20260506070520 | 10 | 321 | 4.8 | 9.7 | 0.18 | 1.40 | 0.25 | 98 | 1007.1 |
| 20260506061518 | 10 | 265 | 0.0 | 3.2 | 0.10 | 1.24 | 0.10 | 98 | 1007.0 |
| 20260506060518 | 10 | 293 | 1.6 | 4.8 | 0.08 | 1.22 | 0.08 | 98 | 1007.1 |
| 20260506050519 | 11 | 312 | 0.0 | 4.8 | 0.00 | 1.14 | 0.00 | 98 | 1007.5 |
| 20260506044520 | 11 | 323 | 1.6 | 4.8 | 0.03 | 1.14 | 0.00 | 98 | 1007.5 |
| 20260506043521 | 12 | 333 | 0.0 | 4.8 | 0.08 | 1.14 | 0.00 | 98 | 1007.7 |
| 20260506042520 | 12 | 329 | 1.6 | 4.8 | 0.15 | 1.14 | 0.00 | 98 | 1007.6 |
| 20260506041519 | 13 | 319 | 3.2 | 6.4 | 0.20 | 1.14 | 0.00 | 98 | 1007.6 |
| 20260506040519 | 14 | 203 | 0.0 | 3.2 | 0.28 | 1.14 | 0.00 | 98 | 1007.5 |
| 20260506035521 | 14 | 176 | 1.6 | 4.8 | 0.30 | 1.14 | 1.14 | 98 | 1007.6 |
| 20260506034521 | 14 | 180 | 0.0 | 4.8 | 0.28 | 1.12 | 1.12 | 98 | 1007.9 |
| 20260506033518 | 14 | 200 | 1.6 | 4.8 | 0.28 | 1.04 | 1.04 | 98 | 1008.0 |
| 20260506032517 | 14 | 193 | 0.0 | 3.2 | 0.28 | 0.99 | 0.99 | 98 | 1008.1 |
| 20260506031521 | 15 | 189 | 0.0 | 4.8 | 0.25 | 0.94 | 0.94 | 98 | 1008.1 |
| 20260506030519 | 15 | 172 | 0.0 | 4.8 | 0.25 | 0.86 | 0.86 | 98 | 1008.1 |
| 20260506025518 | 15 | 192 | 0.0 | 4.8 | 0.28 | 0.84 | 0.84 | 98 | 1008.1 |
| 20260506024519 | 15 | 179 | 1.6 | 6.4 | 0.30 | 0.81 | 0.81 | 98 | 1008.0 |
| 20260506023519 | 15 | 161 | 0.0 | 8.0 | 0.33 | 0.76 | 0.76 | 98 | 1008.2 |
| 20260506022517 | 15 | 196 | 0.0 | 4.8 | 0.28 | 0.71 | 0.71 | 98 | 1008.2 |
| 20260506021521 | 15 | 178 | 0.0 | 4.8 | 0.25 | 0.69 | 0.69 | 98 | 1008.2 |
| 20260506020519 | 15 | 209 | 0.0 | 3.2 | 0.20 | 0.64 | 0.64 | 98 | 1008.2 |
| 20260506015519 | 15 | 269 | 0.0 | 1.6 | 0.13 | 0.56 | 0.56 | 98 | 1008.0 |
| 20260506014517 | 15 | 200 | 0.0 | 3.2 | 0.13 | 0.51 | 0.51 | 98 | 1008.0 |
| 20260506013519 | 15 | 0.0 | 0.0 | 0.10 | 0.46 | 0.46 | 98 | 1007.9 | |
| 20260506012521 | 15 | 0.0 | 0.0 | 0.08 | 0.43 | 0.43 | 98 | 1007.8 | |
| 20260506011521 | 15 | 0.0 | 0.0 | 0.08 | 0.43 | 0.43 | 98 | 1007.5 | |
| 20260506010519 | 15 | 0.0 | 0.0 | 0.08 | 0.41 | 0.41 | 98 | 1007.6 | |
| 20260506005519 | 15 | 161 | 0.0 | 3.2 | 0.08 | 0.41 | 0.41 | 98 | 1007.7 |
| 20260506004518 | 15 | 190 | 0.0 | 4.8 | 0.05 | 0.38 | 0.38 | 98 | 1007.8 |
| 20260506003518 | 15 | 18 | 0.0 | 1.6 | 0.03 | 0.36 | 0.36 | 98 | 1007.9 |
| 20260506002518 | 15 | 250 | 0.0 | 0.0 | 0.00 | 0.36 | 0.36 | 98 | 1007.7 |
| 20260506001519 | 15 | 175 | 0.0 | 4.8 | 0.00 | 0.36 | 0.36 | 98 | 1007.7 |
| 20260506000518 | 15 | 195 | 0.0 | 3.2 | 0.00 | 0.36 | 0.36 | 98 | 1007.7 |
| 20260505235519 | 15 | 0.0 | 0.0 | 0.00 | 0.36 | 0.36 | 97 | 1007.7 | |
| 20260505234519 | 15 | 212 | 0.0 | 3.2 | 0.03 | 0.36 | 0.36 | 97 | 1007.7 |
| 20260505233519 | 15 | 0.0 | 0.0 | 0.03 | 0.36 | 0.36 | 97 | 1007.8 | |
| 20260505232519 | 15 | 2 | 0.0 | 4.8 | 0.10 | 0.36 | 0.36 | 97 | 1008.0 |
| 20260505231521 | 15 | 174 | 0.0 | 1.6 | 0.13 | 0.36 | 0.36 | 97 | 1008.1 |
| 20260505230520 | 15 | 151 | 0.0 | 1.6 | 0.15 | 0.36 | 0.36 | 96 | 1008.1 |
| 20260505225520 | 15 | 131 | 0.0 | 3.2 | 0.18 | 0.33 | 0.33 | 96 | 1008.1 |